User: anonymous   Login
Location: Caltech
(34.1382°N, 118.1253°W)
Time: 18:47:50
(UTC-08:00)
Language:

NOAA 19 - Orbit

View from above orbital plane
View from above orbital plane
View from above satellite
View from above satellite

Ground track
Ground track

The orbit data is extracted from the following two-line orbital elements,

1 33591U 09005A   14330.50962589  .00000246  00000-0  15923-3 0  4776
2 33591 098.9646 275.2015 0014430 025.7692 084.4849 14.11815104298899
Epoch (UTC): 26 November 2014 12:13:51
Eccentricity: 0.0014430
inclination: 98.9646°
perigee height: 843 km
apogee height: 863 km
right ascension of ascending node: 275.2015°
argument of perigee: 25.7692°
revolutions per day: 14.11815104
mean anomaly at epoch: 84.4849°
orbit number at epoch: 29889

The dashed part of the orbit path shows where the satellite is in the earth's shadow,  

DLR